McConnell AFB, KS

11:12 AM CDT on September 17, 2019 (GMT -0500)
McConnell Air Force Base

Weather History for KIAB - May, 2019

Change the Weather History Date:

Tuesday, May 14, 2019

  Actual Average Record
Temperature  
Mean Temperature 72 °F -  
Max Temperature 84 °F 74 °F 92 °F (2018)
Min Temperature 61 °F 54 °F 42 °F (2004)
Cooling Degree Days 8    
Growing Degree Days 22 (Base 50)    
Moisture  
Dew Point 60 °F    
Average Humidity 75    
Maximum Humidity 94    
Minimum Humidity 44    
Precipitation  
Precipitation 0.13 in - - ()
Sea Level Pressure  
Sea Level Pressure 29.88 in    
Wind  
Wind Speed 9 mph (SE)    
Max Wind Speed 17 mph    
Max Gust Speed 17 mph    
Visibility 10 miles    
Events Rain    
Averages and records for this station are not official NWS values.
T = Trace of Precipitation, MM = Missing Value Source: NWS Daily Summary

Daily Weather History Graph

Daily Weather History Graph

Search for Another Location

Airport or City:

Astronomy

May. 14, 2019 Rise Set
Actual Time 6:20 AM CDT 8:30 PM CDT
Civil Twilight 5:51 AM CDT 9:00 PM CDT
Nautical Twilight 5:15 AM CDT 9:35 PM CDT
Astronomical Twilight 4:36 AM CDT 10:14 PM CDT
Moon 4:00 PM CDT (5/14) 4:06 AM CDT (5/14)
Length of Visible Light 15h 08m
Length of Day
14h 10m
Waxing Gibbous, 79% of the Moon is Illuminated
May 14
Waxing Gibbous
May 18
Full
May 26
Last Quarter
Jun 3
New
Jun 10
First Quarter

Hourly Weather History & Observations

Time (CDT) Temp. Heat Index Dew Point Humidity Pressure Visibility Wind Dir Wind Speed Gust Speed Precip Events Conditions
12:38 AM 62.6 °F - 57.2 °F 82% 29.91 in 10.0 mi ESE 9.2 mph - N/A   Overcast
12:56 AM 62.8 °F - 56.5 °F 80% 29.91 in 7.0 mi SE 8.1 mph - 0.09 in   Overcast
1:56 AM 63.3 °F - 58.1 °F 83% 29.88 in 10.0 mi ESE 6.9 mph - N/A   Mostly Cloudy
2:56 AM 64.4 °F - 58.8 °F 82% 29.88 in 10.0 mi ESE 8.1 mph - N/A   Mostly Cloudy
3:15 AM 64.4 °F - 59.0 °F 83% 29.89 in 9.0 mi East 3.5 mph - N/A Rain Light Rain
4:33 AM 62.6 °F - 59.0 °F 88% 29.88 in 10.0 mi East 6.9 mph - N/A Rain Light Rain
4:44 AM 62.6 °F - 59.0 °F 88% 29.88 in 10.0 mi East 8.1 mph - N/A   Overcast
4:48 AM 62.6 °F - 59.0 °F 88% 29.88 in 10.0 mi East 10.4 mph - N/A   Overcast
4:49 AM 62.6 °F - 59.0 °F 88% 29.88 in 10.0 mi East 10.4 mph - N/A Rain Rain
4:56 AM 62.6 °F - 59.9 °F 91% 29.88 in 9.0 mi East 9.2 mph - 0.04 in Rain Light Rain
5:05 AM 62.6 °F - 60.8 °F 94% 29.88 in 10.0 mi East 8.1 mph - N/A   Overcast
5:11 AM 62.6 °F - 60.8 °F 94% 29.88 in 10.0 mi East 10.4 mph - N/A Rain Light Rain
5:18 AM 62.6 °F - 60.8 °F 94% 29.88 in 10.0 mi East 10.4 mph - N/A   Mostly Cloudy
6:56 AM 61.3 °F - 59.4 °F 93% 29.88 in 10.0 mi ESE 8.1 mph - N/A   Mostly Cloudy
7:56 AM 64.0 °F - 58.5 °F 82% 29.89 in 10.0 mi SE 9.2 mph - N/A   Partly Cloudy
8:56 AM 68.5 °F - 59.5 °F 73% 29.89 in 10.0 mi SSE 9.2 mph - N/A   Clear
10:56 AM 72.7 °F - 60.3 °F 65% 29.89 in 10.0 mi SSE 10.4 mph - N/A   Clear
12:56 PM 76.6 °F - 61.2 °F 59% 29.89 in 10.0 mi South 12.7 mph 17.3 mph N/A   Clear
3:56 PM 82.8 °F 83.1 °F 60.4 °F 47% 29.84 in 10.0 mi South 11.5 mph - N/A   Clear
4:56 PM 84.4 °F 84.6 °F 60.6 °F 45% 29.83 in 10.0 mi South 12.7 mph - N/A   Clear
5:56 PM 84.7 °F 84.8 °F 60.4 °F 44% 29.82 in 10.0 mi SW 10.4 mph - N/A   Clear
6:56 PM 82.9 °F 83.5 °F 61.2 °F 48% 29.83 in 10.0 mi SSE 17.3 mph - N/A   Scattered Clouds
7:56 PM 78.4 °F - 61.9 °F 57% 29.84 in 10.0 mi SSE 11.5 mph - N/A   Clear
8:56 PM 73.2 °F - 60.8 °F 65% 29.86 in 10.0 mi SSE 9.2 mph - N/A   Clear
9:56 PM 69.4 °F - 59.2 °F 70% 29.88 in 10.0 mi SE 5.8 mph - N/A   Clear
10:56 PM 67.6 °F - 58.6 °F 73% 29.89 in 10.0 mi SSE 9.2 mph - N/A   Clear
11:56 PM 66.0 °F - 58.3 °F 76% 29.89 in 10.0 mi SSE 6.9 mph - N/A   Clear